User: anonymous
Location: Sunrise Point
(46.9200°N, 121.5900°W)
Time: 05:29:58
(UTC-07:00)
Language:

Cosmos 2058 - Orbit

View from above orbital plane
View from above orbital plane
View from above satellite
View from above satellite

Ground track
Ground track

The orbit data is extracted from the following two-line orbital elements,

1 20465U 90010A   14106.81331445  .00003000  00000-0  27445-3 0   841
2 20465 082.4900 278.7927 0016020 222.9033 137.0939 14.94584624312245
Epoch (UTC): 16 April 2014 19:31:10
Eccentricity: 0.0016020
inclination: 82.4900°
perigee height: 572 km
apogee height: 595 km
right ascension of ascending node: 278.7927°
argument of perigee: 222.9033°
revolutions per day: 14.94584624
mean anomaly at epoch: 137.0939°
orbit number at epoch: 31224

The dashed part of the orbit path shows where the satellite is in the earth's shadow,  

DLR